WZZ8BK ESGG-EPGD

Flight info

Callsign WZZ8BK
Flight time 0h 59m
Altitude 35000
Route LUKAX DCT TEMLI DCT PENOR N133 DOMAG T240 OGDAV
Aircraft A321/M-SDE1E2E3FGIJ1J4RWXY/LB1

Departure

Time 2026-05-06 17:44
Airport Göteborg Landvetter Airport (ESGG)

Arrival

Time 2026-05-06 18:43
Airport Gdańsk Lech Wałęsa Airport (EPGD)
Time Latitude Longitude Altitude Speed Heading
2026-05-06 16:59 57.66728 12.29273 518 ft 0 kts 115°
2026-05-06 17:34 57.66734 12.29251 518 ft 2 kts 115°
2026-05-06 17:34 57.66741 12.29225 518 ft 2 kts 116°
2026-05-06 17:34 57.66747 12.29200 518 ft 2 kts 115°
2026-05-06 17:34 57.66753 12.29179 518 ft 0 kts 116°
2026-05-06 17:35 57.66757 12.29158 518 ft 2 kts 87°
2026-05-06 17:35 57.66753 12.29131 518 ft 2 kts 52°
2026-05-06 17:35 57.66745 12.29118 518 ft 0 kts 28°
2026-05-06 17:36 57.66738 12.29112 518 ft 0 kts 25°
2026-05-06 17:38 57.66740 12.29114 518 ft 0 kts 25°
2026-05-06 17:38 57.66742 12.29115 518 ft 1 kts 25°
2026-05-06 17:39 57.66750 12.29123 518 ft 0 kts 25°
2026-05-06 17:39 57.66756 12.29127 518 ft 2 kts 20°
2026-05-06 17:39 57.66772 12.29111 518 ft 4 kts 297°
2026-05-06 17:40 57.66784 12.29050 518 ft 5 kts 290°
2026-05-06 17:40 57.66817 12.28994 517 ft 8 kts 356°
2026-05-06 17:40 57.66882 12.29039 517 ft 10 kts 28°
2026-05-06 17:40 57.66947 12.29100 517 ft 10 kts 23°
2026-05-06 17:41 57.67017 12.29160 517 ft 11 kts 28°
2026-05-06 17:41 57.67087 12.29227 517 ft 11 kts 24°
2026-05-06 17:41 57.67158 12.29293 518 ft 11 kts 25°
2026-05-06 17:41 57.67232 12.29357 517 ft 12 kts 24°
2026-05-06 17:42 57.67309 12.29427 517 ft 12 kts 26°
2026-05-06 17:42 57.67391 12.29477 517 ft 12 kts 343°
2026-05-06 17:42 57.67450 12.29329 513 ft 15 kts 292°
2026-05-06 17:42 57.67452 12.29131 512 ft 15 kts 255°
2026-05-06 17:43 57.67383 12.28984 511 ft 11 kts 207°
2026-05-06 17:43 57.67376 12.28978 511 ft 0 kts 207°
2026-05-06 17:43 57.67333 12.28937 511 ft 32 kts 206°
2026-05-06 17:43 57.66899 12.28541 509 ft 103 kts 206°
2026-05-06 17:44 57.66075 12.27793 504 ft 161 kts 207°
2026-05-06 17:44 57.64964 12.26757 744 ft 189 kts 208°
2026-05-06 17:44 57.63752 12.25594 1294 ft 201 kts 209°
2026-05-06 17:44 57.62461 12.24779 2047 ft 200 kts 182°
2026-05-06 17:45 57.61172 12.25347 2755 ft 189 kts 155°
2026-05-06 17:45 57.60016 12.26454 3326 ft 186 kts 153°
2026-05-06 17:45 57.58863 12.27554 3815 ft 188 kts 155°
2026-05-06 17:45 57.57683 12.28765 4105 ft 203 kts 138°
2026-05-06 17:46 57.56879 12.30973 4397 ft 218 kts 106°
2026-05-06 17:46 57.56832 12.33847 4701 ft 234 kts 73°
2026-05-06 17:46 57.57450 12.36726 4996 ft 250 kts 66°
2026-05-06 17:46 57.58149 12.39764 5017 ft 254 kts 67°
2026-05-06 17:47 57.58818 12.42786 5024 ft 254 kts 68°
2026-05-06 17:47 57.59478 12.45842 5018 ft 253 kts 68°
2026-05-06 17:47 57.60135 12.48924 5032 ft 264 kts 68°
2026-05-06 17:47 57.60812 12.52125 5044 ft 265 kts 68°
2026-05-06 17:48 57.61397 12.54894 5031 ft 266 kts 68°
2026-05-06 17:48 57.61444 12.55117 5034 ft 266 kts 68°
2026-05-06 17:48 57.62116 12.58348 5367 ft 273 kts 70°
2026-05-06 17:48 57.62696 12.61674 6278 ft 271 kts 73°
2026-05-06 17:49 57.63247 12.64974 7169 ft 269 kts 73°
2026-05-06 17:49 57.63801 12.68343 7934 ft 273 kts 74°
2026-05-06 17:49 57.64359 12.71748 8636 ft 278 kts 74°
2026-05-06 17:49 57.64925 12.75201 9324 ft 282 kts 74°
2026-05-06 17:50 57.65499 12.78695 9976 ft 287 kts 74°
2026-05-06 17:50 57.66091 12.82315 10491 ft 297 kts 73°
2026-05-06 17:50 57.66704 12.86073 10796 ft 314 kts 73°
2026-05-06 17:50 57.67350 12.90033 11246 ft 325 kts 73°
2026-05-06 17:51 57.68011 12.94093 11883 ft 329 kts 73°
2026-05-06 17:51 57.68670 12.98155 12497 ft 333 kts 72°
2026-05-06 17:51 57.69340 13.02297 13081 ft 337 kts 72°
2026-05-06 17:51 57.69972 13.06202 13585 ft 342 kts 72°
2026-05-06 17:52 57.70629 13.10510 14139 ft 348 kts 77°
2026-05-06 17:52 57.70628 13.15013 14628 ft 353 kts 103°
2026-05-06 17:52 57.69643 13.19149 14887 ft 353 kts 127°
2026-05-06 17:52 57.68084 13.22700 14915 ft 352 kts 132°
2026-05-06 17:53 57.66507 13.26118 14908 ft 352 kts 132°
2026-05-06 17:53 57.64922 13.29564 14906 ft 352 kts 132°
2026-05-06 17:53 57.63344 13.33033 14902 ft 351 kts 131°
2026-05-06 17:53 57.61768 13.36523 14905 ft 351 kts 131°
2026-05-06 17:54 57.60201 13.40010 14907 ft 351 kts 131°
2026-05-06 17:54 57.58640 13.43488 14903 ft 350 kts 131°
2026-05-06 17:54 57.57085 13.46955 15032 ft 356 kts 131°
2026-05-06 17:54 57.55492 13.50508 15625 ft 358 kts 131°
2026-05-06 17:55 57.53910 13.54037 16264 ft 359 kts 131°
2026-05-06 17:55 57.52307 13.57606 16817 ft 363 kts 132°
2026-05-06 17:55 57.50684 13.61212 17333 ft 366 kts 132°
2026-05-06 17:55 57.49050 13.64835 17857 ft 370 kts 132°
2026-05-06 17:56 57.47390 13.68514 18383 ft 373 kts 133°
2026-05-06 17:56 57.45724 13.72198 18884 ft 376 kts 133°
2026-05-06 17:56 57.44036 13.75928 19387 ft 379 kts 134°
2026-05-06 17:56 57.42356 13.79636 19872 ft 382 kts 134°
2026-05-06 17:57 57.40643 13.83407 20357 ft 384 kts 134°
2026-05-06 17:57 57.38919 13.87198 20824 ft 387 kts 134°
2026-05-06 17:57 57.37192 13.90987 21278 ft 390 kts 135°
2026-05-06 17:57 57.35429 13.94847 21722 ft 393 kts 135°
2026-05-06 17:58 57.33664 13.98706 22158 ft 396 kts 135°
2026-05-06 17:58 57.31883 14.02595 22567 ft 399 kts 135°
2026-05-06 17:58 57.30101 14.06480 22973 ft 402 kts 135°
2026-05-06 17:58 57.28288 14.10427 23390 ft 404 kts 135°
2026-05-06 17:59 57.26458 14.14404 23776 ft 407 kts 135°
2026-05-06 17:59 57.24525 14.18194 24144 ft 407 kts 142°
2026-05-06 17:59 57.22475 14.21672 24562 ft 407 kts 143°
2026-05-06 17:59 57.20358 14.25164 25011 ft 408 kts 143°
2026-05-06 18:00 57.18248 14.28655 25452 ft 409 kts 143°
2026-05-06 18:00 57.16145 14.32161 25879 ft 410 kts 143°
2026-05-06 18:00 57.14052 14.35670 26290 ft 411 kts 143°
2026-05-06 18:00 57.11937 14.39224 26679 ft 413 kts 143°
2026-05-06 18:01 57.09830 14.42771 27043 ft 415 kts 143°
2026-05-06 18:01 57.07695 14.46361 27403 ft 416 kts 142°
2026-05-06 18:01 57.05574 14.49929 27776 ft 417 kts 142°
2026-05-06 18:01 57.03455 14.53489 28143 ft 418 kts 142°
2026-05-06 18:02 57.01302 14.57106 28498 ft 420 kts 142°
2026-05-06 18:02 56.99163 14.60692 28839 ft 421 kts 142°
2026-05-06 18:02 56.96993 14.64325 29171 ft 422 kts 142°
2026-05-06 18:02 56.94843 14.67918 29500 ft 423 kts 143°
2026-05-06 18:03 56.92665 14.71553 29828 ft 424 kts 143°
2026-05-06 18:03 56.90482 14.75191 30140 ft 425 kts 143°
2026-05-06 18:03 56.88311 14.78799 30435 ft 426 kts 143°
2026-05-06 18:03 56.86118 14.82439 30733 ft 427 kts 143°
2026-05-06 18:04 56.83934 14.86060 31020 ft 428 kts 142°
2026-05-06 18:04 56.81712 14.89731 31267 ft 430 kts 142°
2026-05-06 18:04 56.79518 14.93352 31510 ft 432 kts 142°
2026-05-06 18:04 56.77281 14.97044 31846 ft 431 kts 142°
2026-05-06 18:05 56.75091 15.00655 32209 ft 430 kts 142°
2026-05-06 18:05 56.72873 15.04301 32558 ft 428 kts 142°
2026-05-06 18:05 56.70672 15.07916 32880 ft 428 kts 142°
2026-05-06 18:05 56.68485 15.11500 33186 ft 427 kts 142°
2026-05-06 18:06 56.66284 15.15100 33459 ft 427 kts 142°
2026-05-06 18:06 56.64073 15.18710 33701 ft 428 kts 142°
2026-05-06 18:06 56.61850 15.22333 33934 ft 429 kts 142°
2026-05-06 18:06 56.59650 15.25914 34151 ft 430 kts 142°
2026-05-06 18:07 56.57431 15.29518 34362 ft 431 kts 142°
2026-05-06 18:07 56.55206 15.33125 34565 ft 431 kts 142°
2026-05-06 18:07 56.52978 15.36735 34768 ft 431 kts 142°
2026-05-06 18:07 56.50760 15.40323 34936 ft 432 kts 142°
2026-05-06 18:08 56.46281 15.47548 34963 ft 433 kts 142°
2026-05-06 18:08 56.41793 15.54759 34968 ft 433 kts 142°
2026-05-06 18:09 56.37298 15.61960 34966 ft 434 kts 142°
2026-05-06 18:09 56.32781 15.69176 34971 ft 433 kts 142°
2026-05-06 18:10 56.28277 15.76346 34958 ft 434 kts 142°
2026-05-06 18:10 56.23783 15.83478 34952 ft 434 kts 142°
2026-05-06 18:11 56.19279 15.90603 34954 ft 435 kts 143°
2026-05-06 18:11 56.14763 15.97720 34953 ft 434 kts 142°
2026-05-06 18:12 56.10209 16.04875 34948 ft 434 kts 142°
2026-05-06 18:12 56.06232 16.11104 34953 ft 435 kts 142°
2026-05-06 18:13 56.01687 16.18200 34945 ft 436 kts 142°
2026-05-06 18:13 55.97140 16.25277 34938 ft 436 kts 142°
2026-05-06 18:14 55.92581 16.32353 34936 ft 436 kts 142°
2026-05-06 18:14 55.88009 16.39425 34923 ft 436 kts 142°
2026-05-06 18:15 55.85748 16.42917 34684 ft 437 kts 142°
2026-05-06 18:15 55.83465 16.46431 34292 ft 435 kts 142°
2026-05-06 18:15 55.81179 16.49941 33749 ft 435 kts 142°
2026-05-06 18:15 55.78883 16.53462 33088 ft 436 kts 142°
2026-05-06 18:16 55.76613 16.56938 32406 ft 437 kts 142°
2026-05-06 18:16 55.74316 16.60451 31709 ft 438 kts 141°
2026-05-06 18:16 55.72026 16.63948 31026 ft 439 kts 141°
2026-05-06 18:16 55.69714 16.67475 30517 ft 434 kts 142°
2026-05-06 18:17 55.67446 16.70934 30008 ft 429 kts 142°
2026-05-06 18:17 55.65203 16.74351 29542 ft 424 kts 142°
2026-05-06 18:17 55.62988 16.77717 29059 ft 419 kts 142°
2026-05-06 18:17 55.60803 16.81030 28568 ft 415 kts 142°
2026-05-06 18:18 55.58633 16.84317 28083 ft 411 kts 142°
2026-05-06 18:18 55.56498 16.87546 27605 ft 407 kts 142°
2026-05-06 18:18 55.54361 16.90771 27130 ft 403 kts 142°
2026-05-06 18:18 55.52243 16.93966 26661 ft 399 kts 142°
2026-05-06 18:19 55.50140 16.97131 26201 ft 395 kts 142°
2026-05-06 18:19 55.48076 17.00232 25741 ft 392 kts 142°
2026-05-06 18:19 55.46012 17.03329 25281 ft 389 kts 142°
2026-05-06 18:19 55.43983 17.06370 24836 ft 386 kts 142°
2026-05-06 18:20 55.41951 17.09409 24390 ft 383 kts 142°
2026-05-06 18:20 55.39918 17.12445 23936 ft 380 kts 143°
2026-05-06 18:20 55.37923 17.15424 23497 ft 378 kts 143°
2026-05-06 18:20 55.35947 17.18370 23061 ft 376 kts 143°
2026-05-06 18:21 55.33956 17.21332 22619 ft 374 kts 143°
2026-05-06 18:21 55.31998 17.24240 22183 ft 372 kts 143°
2026-05-06 18:21 55.30017 17.27178 21753 ft 371 kts 143°
2026-05-06 18:21 55.28050 17.30088 21500 ft 378 kts 143°
2026-05-06 18:22 55.26045 17.33053 21248 ft 378 kts 143°
2026-05-06 18:22 55.24045 17.36009 20999 ft 377 kts 143°
2026-05-06 18:22 55.22030 17.38984 20744 ft 376 kts 143°
2026-05-06 18:22 55.20040 17.41920 20492 ft 375 kts 143°
2026-05-06 18:23 55.18043 17.44860 20242 ft 374 kts 143°
2026-05-06 18:23 55.16066 17.47764 19992 ft 372 kts 143°
2026-05-06 18:23 55.14098 17.50656 19743 ft 371 kts 143°
2026-05-06 18:23 55.12147 17.53516 19496 ft 370 kts 143°
2026-05-06 18:24 55.10177 17.56400 19246 ft 368 kts 143°
2026-05-06 18:24 55.08231 17.59242 18999 ft 367 kts 143°
2026-05-06 18:24 55.06287 17.62081 18749 ft 365 kts 143°
2026-05-06 18:24 55.04330 17.64934 18500 ft 364 kts 143°
2026-05-06 18:25 55.02399 17.67747 18253 ft 362 kts 144°
2026-05-06 18:25 55.00484 17.70535 18004 ft 361 kts 144°
2026-05-06 18:25 54.98563 17.73324 17762 ft 359 kts 144°
2026-05-06 18:25 54.96652 17.76095 17518 ft 358 kts 144°
2026-05-06 18:26 54.94732 17.78877 17269 ft 357 kts 144°
2026-05-06 18:26 54.92845 17.81607 17023 ft 356 kts 144°
2026-05-06 18:26 54.90929 17.84378 16771 ft 355 kts 144°
2026-05-06 18:26 54.89049 17.87092 16525 ft 353 kts 144°
2026-05-06 18:27 54.87161 17.89814 16274 ft 352 kts 145°
2026-05-06 18:27 54.85294 17.92499 16031 ft 351 kts 144°
2026-05-06 18:27 54.83432 17.95178 15758 ft 345 kts 145°
2026-05-06 18:27 54.81613 17.97792 15454 ft 340 kts 145°
2026-05-06 18:28 54.79789 18.00357 15149 ft 334 kts 147°
2026-05-06 18:28 54.77952 18.02773 14835 ft 329 kts 147°
2026-05-06 18:28 54.76140 18.05140 14534 ft 324 kts 148°
2026-05-06 18:28 54.74368 18.07447 14278 ft 318 kts 148°
2026-05-06 18:29 54.72631 18.09707 14026 ft 312 kts 148°
2026-05-06 18:29 54.70911 18.11945 13780 ft 309 kts 148°
2026-05-06 18:29 54.69170 18.14206 13558 ft 308 kts 147°
2026-05-06 18:29 54.67522 18.16558 13343 ft 310 kts 142°
2026-05-06 18:30 54.65998 18.19173 13134 ft 311 kts 137°
2026-05-06 18:30 54.64540 18.21946 12860 ft 311 kts 136°
2026-05-06 18:30 54.63099 18.24719 12520 ft 310 kts 136°
2026-05-06 18:30 54.61671 18.27468 12161 ft 309 kts 136°
2026-05-06 18:31 54.60252 18.30189 11797 ft 308 kts 136°
2026-05-06 18:31 54.58823 18.32921 11430 ft 307 kts 136°
2026-05-06 18:31 54.57386 18.35663 11059 ft 306 kts 136°
2026-05-06 18:31 54.55961 18.38375 10686 ft 306 kts 136°
2026-05-06 18:32 54.54556 18.41049 10306 ft 305 kts 136°
2026-05-06 18:32 54.53131 18.43760 9928 ft 304 kts 136°
2026-05-06 18:32 54.51713 18.46448 9550 ft 303 kts 136°
2026-05-06 18:32 54.50313 18.49099 9228 ft 301 kts 136°
2026-05-06 18:33 54.48915 18.51748 8939 ft 297 kts 136°
2026-05-06 18:33 54.47518 18.54390 8479 ft 300 kts 136°
2026-05-06 18:33 54.46134 18.57002 8210 ft 295 kts 136°
2026-05-06 18:33 54.44772 18.59575 7961 ft 290 kts 136°
2026-05-06 18:34 54.43431 18.62107 7762 ft 283 kts 135°
2026-05-06 18:34 54.42291 18.64812 7582 ft 280 kts 122°
2026-05-06 18:34 54.41464 18.67823 7349 ft 277 kts 117°
2026-05-06 18:34 54.40720 18.70890 7094 ft 273 kts 116°
2026-05-06 18:35 54.40006 18.73864 6848 ft 269 kts 116°
2026-05-06 18:35 54.39295 18.76776 6603 ft 265 kts 116°
2026-05-06 18:35 54.38583 18.79646 6271 ft 260 kts 116°
2026-05-06 18:35 54.37870 18.82489 5887 ft 258 kts 116°
2026-05-06 18:36 54.37160 18.85311 5466 ft 257 kts 114°
2026-05-06 18:36 54.36463 18.88075 5100 ft 254 kts 114°
2026-05-06 18:36 54.35745 18.90842 4648 ft 255 kts 119°
2026-05-06 18:36 54.34552 18.92951 4293 ft 244 kts 160°
2026-05-06 18:37 54.32977 18.93313 4063 ft 225 kts 198°
2026-05-06 18:37 54.31606 18.92224 3793 ft 216 kts 221°
2026-05-06 18:37 54.30387 18.90722 3473 ft 219 kts 209°
2026-05-06 18:37 54.28880 18.90288 3171 ft 226 kts 181°
2026-05-06 18:38 54.27379 18.89862 2876 ft 219 kts 211°
2026-05-06 18:38 54.26288 18.88127 2618 ft 218 kts 244°
2026-05-06 18:38 54.26026 18.85622 2619 ft 217 kts 282°
2026-05-06 18:38 54.26697 18.83345 2702 ft 219 kts 310°
2026-05-06 18:39 54.27736 18.81412 2738 ft 218 kts 314°
2026-05-06 18:39 54.28793 18.79616 2811 ft 215 kts 314°
2026-05-06 18:39 54.29817 18.77733 2853 ft 216 kts 309°
2026-05-06 18:40 54.31229 18.73227 2889 ft 215 kts 297°
2026-05-06 18:40 54.31826 18.70930 2819 ft 208 kts 295°
2026-05-06 18:40 54.32349 18.68669 2839 ft 203 kts 296°
2026-05-06 18:40 54.32864 18.66470 2762 ft 194 kts 296°
2026-05-06 18:41 54.33374 18.64369 2474 ft 191 kts 298°
2026-05-06 18:41 54.33874 18.62329 2178 ft 181 kts 299°
2026-05-06 18:41 54.34342 18.60418 1950 ft 168 kts 300°
2026-05-06 18:41 54.34780 18.58636 1705 ft 157 kts 301°
2026-05-06 18:42 54.35190 18.56970 1481 ft 147 kts 302°
2026-05-06 18:42 54.35582 18.55389 1300 ft 144 kts 302°
2026-05-06 18:42 54.35973 18.53811 1116 ft 144 kts 299°
2026-05-06 18:42 54.36361 18.52244 923 ft 143 kts 300°
2026-05-06 18:43 54.36747 18.50679 722 ft 143 kts 300°
2026-05-06 18:43 54.37135 18.49097 524 ft 143 kts 299°
2026-05-06 18:43 54.37497 18.47690 459 ft 95 kts 293°
2026-05-06 18:43 54.37646 18.47072 452 ft 33 kts 300°
2026-05-06 18:44 54.37787 18.46788 450 ft 30 kts 321°
2026-05-06 18:44 54.37858 18.46695 450 ft 9 kts 325°
2026-05-06 18:44 54.37868 18.46683 450 ft 0 kts 325°
2026-05-06 18:44 54.37884 18.46664 450 ft 6 kts 326°
2026-05-06 18:45 54.37928 18.46601 450 ft 8 kts 321°
2026-05-06 18:45 54.37986 18.46578 450 ft 9 kts 22°
2026-05-06 18:45 54.38047 18.46614 450 ft 9 kts 355°
2026-05-06 18:45 54.38086 18.46532 450 ft 9 kts 292°
2026-05-06 18:46 54.38117 18.46477 450 ft 5 kts
2026-05-06 18:46 54.38145 18.46496 450 ft 2 kts 24°
2026-05-06 18:46 54.38147 18.46497 450 ft 0 kts 24°